Flag for Germany

Past Weather in Viersen, North Rhine-Westphalia, Germany — Yesterday and Last 2 Weeks

Now
68 °F

Mostly cloudy.


Feels Like: 68 °F
Forecast: 66 / 52 °F
Wind: 13 mph from Southwest

Location: Monchengladbach Airport

Current Time: Jul 5, 2020 at 3:55:15 am

Latest Report: Jul 5, 2020 at 2:50 am


Visibility: N/A

Pressure: 29.89 "Hg

Humidity: 83%

Dew Point: 63 °F

Location of ViersenLocation

Past Weather in Viersen — Graph

°F

Viersen Temperature Yesterday

Maximum temperature yesterday: 72 °F (at 2:50 pm)
Minimum temperature yesterday: 57 °F (at 3:50 am)
Average temperature yesterday: 65 °F

High & Low Weather Summary for the Past Weeks

 TemperatureHumidityPressure
High88 °F (Jun 26, 4:20 pm)100% (Jun 20, 4:20 am)30.30 "Hg (Jun 20, 4:20 am)
Low50 °F (Jun 21, 4:20 am)30% (Jun 24, 6:50 pm)29.71 "Hg (Jul 1, 3:50 pm)
Average67 °F67%30.00 "Hg
* Reported Jun 20 1:20 am — Jul 5 1:50 am, Viersen. Weather by CustomWeather, © 2020

Note: Actual official high and low records may vary slightly from our data, if they occured in-between our weather recording intervals... More about our weather records

Viersen Weather History for the Previous 24 Hours

Scroll right to see more
 ConditionsComfort  
Time TempWeatherWind HumidityBarometerVisibility
1:50 am
Sun, Jul 5
66 °FMore clouds than sun.13 mph88%29.92 "HgN/A
1:20 am66 °FMostly cloudy.14 mph88%29.92 "HgN/A
12:50 am66 °FBroken clouds.14 mph88%29.92 "HgN/A
12:20 am66 °FMostly cloudy.14 mph88%29.92 "HgN/A
11:50 pm
Sat, Jul 4
66 °FMostly cloudy.13 mph88%29.92 "HgN/A
11:20 pm64 °FOvercast.9 mph94%29.92 "HgN/A
10:50 pm66 °FMore clouds than sun.9 mph88%29.92 "HgN/A
10:20 pm66 °FOvercast.8 mph88%29.95 "HgN/A
9:50 pm66 °FOvercast.9 mph88%29.92 "HgN/A
9:20 pm66 °FMore clouds than sun.8 mph88%29.92 "HgN/A
8:50 pm66 °FMore clouds than sun.10 mph88%29.95 "HgN/A
8:20 pm68 °FMostly cloudy.14 mph78%29.95 "HgN/A
7:50 pm70 °FPassing clouds.14 mph69%29.95 "HgN/A
7:20 pm70 °FOvercast.13 mph69%29.95 "HgN/A
6:50 pm72 °FPassing clouds.13 mph65%29.95 "HgN/A
6:20 pm72 °FPassing clouds.12 mph65%29.95 "HgN/A
5:50 pm70 °FPassing clouds.13 mph69%29.95 "HgN/A
5:20 pm70 °FPassing clouds.14 mph69%29.95 "HgN/A
4:50 pm70 °FPassing clouds.13 mph69%29.95 "HgN/A
4:20 pm70 °FPassing clouds.14 mph69%29.95 "HgN/A
3:50 pm70 °FPassing clouds.15 mph64%29.95 "HgN/A
3:20 pm72 °FPassing clouds.15 mph61%29.95 "HgN/A
2:50 pm72 °FPassing clouds.13 mph61%29.95 "HgN/A
2:20 pm70 °FPassing clouds.14 mph64%29.95 "HgN/A
1:50 pm70 °FPassing clouds.10 mph64%29.95 "HgN/A
1:20 pm68 °FPassing clouds.13 mph64%29.98 "HgN/A
12:50 pm68 °FLight rain. Scattered clouds.9 mph69%29.98 "HgN/A
12:20 pm66 °FPassing clouds.15 mph68%29.98 "HgN/A
11:50 am68 °FPassing clouds.16 mph60%29.98 "HgN/A
11:20 am66 °FPassing clouds.21 mph64%29.98 "HgN/A
10:50 am66 °FPassing clouds.14 mph64%29.98 "HgN/A
10:20 am66 °FPassing clouds.14 mph64%29.98 "HgN/A
9:50 am66 °FPassing clouds.13 mph64%29.98 "HgN/A
9:20 am64 °FOvercast.9 mph68%29.98 "HgN/A
8:50 am63 °FPassing clouds.6 mph73%30.01 "HgN/A
8:20 am63 °FPassing clouds.6 mph73%30.01 "HgN/A
7:50 am61 °FSunny.5 mph77%30.01 "Hg10 mi
7:20 am61 °FPartly sunny.5 mph77%30.01 "HgN/A
6:50 am59 °FOvercast.3 mph82%30.01 "HgN/A
6:20 am59 °FCool.N/A82%30.01 "HgN/A
5:50 am59 °FPartly sunny.2 mph82%30.01 "HgN/A
5:20 am59 °FScattered clouds.5 mph82%30.01 "HgN/A
4:50 am59 °FPartly sunny.6 mph82%30.01 "HgN/A
4:20 am57 °FPartly sunny.3 mph82%30.04 "HgN/A
3:50 am57 °FPartly sunny.3 mph82%30.04 "HgN/A
3:20 am59 °FPassing clouds.3 mph77%30.04 "HgN/A
Weather by CustomWeather, © 2020

See weather overview